Location: San Vito
(41.8833°N, 12.9833°E)
Time: 02:53:10
(UTC+00:00)

Cosmos 1825 - Pass Details

Date: 17 November 2019
Orbit: 504 x 508 km, 82.5° (Epoch: 05 December)

Event Time Altitude Azimuth Distance (km) Brightness Sun altitude
Rises 04:14:33 0° 170° (S) 2,589 6.0 -19.5°
Reaches altitude 10° 04:16:45 10° 162° (SSE) 1,710 5.2 -19.1°
Maximum altitude 04:20:15 39° 93° (E) 764 3.6 -18.4°
Drops below altitude 10° 04:23:48 10° 23° (NNE) 1,724 5.0 -17.8°
Sets 04:26:00 0° 16° (NNE) 2,614 5.9 -17.4°
